User: anonymous   Login
Location: Unspecified
(0.0000°N, 0.0000°E)
Time: 02:51:38
(UTC+00:00)
Language:

Kosmos-2239 - Orbit

View from above orbital plane
View from above orbital plane
View from above satellite
View from above satellite

Ground track
Ground track

The orbit data is extracted from the following two-line orbital elements,

1 22590U 93020A   17147.40338189 +.00000034 +00000-0 +19569-4 0  9999
2 22590 082.9327 076.9078 0023320 162.3356 337.0509 13.75378731212067
Epoch (UTC): 27 May 2017 09:40:52
Eccentricity: 0.0023320
inclination: 82.9327°
perigee height: 963 km
apogee height: 997 km
right ascension of ascending node: 76.9078°
argument of perigee: 162.3356°
revolutions per day: 13.75378731
mean anomaly at epoch: 337.0509°
orbit number at epoch: 21206

The dashed part of the orbit path shows where the satellite is in the earth's shadow,  

DLR